QPF
0.01 0.01 0.01 0.01 0.01 0.01 0.02 0.02 0.02 0.01 0.01 0.01 0.01 0.01 0.00 0.00 0.00 0.00 0.00 0.01 0.01 0.00 0.00 0.01 0.01 0.00 0.00 0.01 0.01 0.01 0.02 0.02 0.02 0.02 0.02 0.03 0.02 0.02 0.02 0.02 0.01 0.01 0.01 0.01
0.01 0.01 0.01 0.01 0.00 0.01 0.01 0.01 0.01 0.01 0.02 0.02 0.01 0.01 0.00 0.00 0.01 0.01 0.01 0.01 0.01 0.01 0.01 0.01 0.01 0.01 0.01 0.01 0.01 0.01 0.01 0.02 0.02 0.02 0.03 0.03 0.03 0.02 0.02 0.02 0.02 0.02 0.01 0.01
0.02 0.01 0.01 0.01 0.01 0.01 0.01 0.02 0.02 0.02 0.02 0.02 0.01 0.01 0.01 0.01 0.01 0.01 0.01 0.01 0.01 0.01 0.01 0.01 0.02 0.01 0.01 0.01 0.01 0.01 0.01 0.02 0.02 0.02 0.02 0.03 0.03 0.03 0.02 0.02 0.01 0.01 0.01 0.00
0.03 0.02 0.03 0.02 0.01 0.01 0.01 0.02 0.02 0.02 0.02 0.02 0.02 0.01 0.01 0.01 0.01 0.01 0.01 0.01 0.02 0.02 0.02 0.02 0.03 0.02 0.01 0.01 0.01 0.01 0.02 0.02 0.02 0.02 0.02 0.03 0.03 0.02 0.02 0.01 0.01 0.01 0.01 0.00
0.04 0.03 0.02 0.01 0.01 0.01 0.01 0.02 0.02 0.02 0.01 0.01 0.01 0.01 0.01 0.01 0.01 0.01 0.01 0.02 0.02 0.02 0.02 0.03 0.04 0.02 0.01 0.02 0.02 0.02 0.02 0.03 0.02 0.02 0.02 0.02 0.02 0.01 0.01 0.01 0.01 0.01 0.01 0.00
0.04 0.04 0.03 0.02 0.01 0.01 0.01 0.02 0.01 0.01 0.01 0.01 0.01 0.01 0.01 0.01 0.01 0.01 0.01 0.02 0.02 0.02 0.02 0.03 0.04 0.03 0.02 0.02 0.02 0.03 0.03 0.03 0.03 0.02 0.02 0.01 0.01 0.01 0.01 0.01 0.01 0.01 0.01 0.00
0.03 0.04 0.03 0.02 0.00 0.01 0.02 0.03 0.01 0.01 0.01 0.02 0.02 0.02 0.02 0.02 0.02 0.02 0.02 0.02 0.02 0.02 0.02 0.03 0.03 0.03 0.03 0.03 0.03 0.03 0.04 0.03 0.02 0.01 0.01 0.01 0.01 0.01 0.01 0.01 0.01 0.01 0.01 0.01
0.03 0.04 0.03 0.01 0.01 0.02 0.02 0.01 0.01 0.01 0.01 0.02 0.02 0.02 0.02 0.02 0.02 0.02 0.02 0.02 0.02 0.02 0.03 0.03 0.04 0.04 0.04 0.04 0.04 0.03 0.03 0.02 0.02 0.01 0.01 0.01 0.01 0.01 0.01 0.01 0.01 0.01 0.01 0.00
0.04 0.03 0.02 0.01 0.02 0.02 0.01 0.01 0.01 0.01 0.01 0.02 0.02 0.02 0.02 0.02 0.02 0.02 0.02 0.02 0.02 0.03 0.03 0.04 0.04 0.05 0.05 0.05 0.04 0.03 0.02 0.02 0.01 0.01 0.01 0.01 0.01 0.01 0.01 0.01 0.01 0.01 0.01 0.01
0.03 0.02 0.02 0.01 0.01 0.01 0.01 0.01 0.01 0.02 0.02 0.01 0.02 0.02 0.02 0.02 0.02 0.02 0.02 0.02 0.03 0.03 0.03 0.04 0.05 0.05 0.05 0.05 0.04 0.03 0.02 0.01 0.01 0.01 0.01 0.01 0.01 0.01 0.01 0.01 0.01 0.01 0.01 0.01
0.03 0.02 0.02 0.02 0.01 0.01 0.01 0.01 0.01 0.01 0.01 0.01 0.01 0.01 0.01 0.02 0.02 0.02 0.02 0.02 0.03 0.03 0.03 0.03 0.03 0.03 0.03 0.03 0.03 0.02 0.01 0.01 0.01 0.01 0.01 0.01 0.01 0.01 0.01 0.01 0.01 0.01 0.02 0.02
0.03 0.02 0.02 0.02 0.02 0.01 0.01 0.01 0.01 0.01 0.01 0.01 0.01 0.01 0.01 0.01 0.02 0.02 0.02 0.02 0.02 0.02 0.02 0.02 0.02 0.02 0.02 0.02 0.01 0.01 0.01 0.01 0.01 0.01 0.00 0.00 0.01 0.01 0.01 0.01 0.01 0.01 0.01 0.02
0.04 0.03 0.02 0.02 0.02 0.02 0.01 0.01 0.01 0.01 0.01 0.01 0.01 0.01 0.01 0.01 0.02 0.02 0.02 0.02 0.02 0.02 0.02 0.02 0.02 0.01 0.01 0.01 0.01 0.01 0.01 0.01 0.01 0.00 0.00 0.01 0.01 0.01 0.01 0.01 0.01 0.01 0.01 0.01
0.02 0.02 0.01 0.01 0.01 0.01 0.01 0.01 0.01 0.01 0.01 0.01 0.01 0.01 0.01 0.01 0.01 0.01 0.02 0.02 0.02 0.02 0.02 0.02 0.01 0.01 0.01 0.01 0.01 0.01 0.01 0.01 0.01 0.01 0.01 0.01 0.01 0.01 0.01 0.01 0.01 0.02 0.01 0.02
0.01 0.01 0.02 0.01 0.01 0.01 0.01 0.02 0.02 0.02 0.02 0.01 0.01 0.01 0.01 0.01 0.01 0.01 0.01 0.01 0.01 0.01 0.02 0.02 0.02 0.02 0.02 0.01 0.01 0.02 0.02 0.02 0.02 0.02 0.01 0.01 0.01 0.01 0.01 0.01 0.01 0.02 0.02 0.03
0.01 0.01 0.01 0.01 0.01 0.01 0.01 0.02 0.02 0.02 0.02 0.01 0.01 0.01 0.01 0.01 0.01 0.01 0.01 0.01 0.01 0.01 0.02 0.02 0.02 0.02 0.02 0.02 0.02 0.02 0.02 0.02 0.02 0.02 0.02 0.02 0.02 0.02 0.02 0.02 0.03 0.03 0.03 0.03
0.01 0.01 0.01 0.01 0.01 0.01 0.01 0.01 0.01 0.02 0.01 0.01 0.01 0.01 0.01 0.01 0.01 0.01 0.01 0.01 0.01 0.01 0.02 0.02 0.03 0.02 0.02 0.02 0.02 0.02 0.02 0.02 0.02 0.02 0.02 0.02 0.02 0.03 0.03 0.03 0.03 0.03 0.03 0.03
0.01 0.01 0.01 0.02 0.02 0.02 0.02 0.01 0.01 0.01 0.01 0.01 0.01 0.01 0.01 0.01 0.01 0.01 0.01 0.01 0.01 0.01 0.02 0.02 0.03 0.03 0.02 0.02 0.02 0.02 0.02 0.02 0.02 0.02 0.02 0.02 0.03 0.03 0.03 0.03 0.03 0.03 0.03 0.03
0.01 0.01 0.01 0.02 0.02 0.02 0.02 0.02 0.02 0.01 0.01 0.01 0.01 0.01 0.01 0.01 0.01 0.01 0.01 0.01 0.01 0.01 0.02 0.02 0.02 0.02 0.02 0.02 0.02 0.02 0.01 0.02 0.02 0.02 0.02 0.02 0.02 0.02 0.02 0.02 0.02 0.02 0.02 0.02
0.01 0.01 0.01 0.02 0.02 0.02 0.02 0.02 0.02 0.02 0.01 0.01 0.01 0.01 0.01 0.01 0.01 0.01 0.01 0.01 0.01 0.01 0.01 0.02 0.01 0.01 0.01 0.02 0.02 0.02 0.02 0.01 0.02 0.02 0.02 0.02 0.02 0.01 0.01 0.01 0.01 0.01 0.01 0.01
0.01 0.01 0.02 0.02 0.02 0.02 0.02 0.02 0.02 0.02 0.02 0.02 0.02 0.01 0.01 0.01 0.01 0.01 0.01 0.01 0.01 0.01 0.01 0.01 0.01 0.01 0.01 0.02 0.02 0.01 0.01 0.02 0.02 0.02 0.01 0.01 0.01 0.01 0.01 0.01 0.01 0.01 0.01 0.01
0.01 0.01 0.01 0.01 0.01 0.01 0.01 0.01 0.02 0.02 0.02 0.01 0.01 0.01 0.01 0.01 0.01 0.01 0.00 0.01 0.01 0.01 0.01 0.01 0.01 0.01 0.01 0.01 0.01 0.01 0.01 0.01 0.01 0.01 0.01 0.01 0.01 0.01 0.01 0.01 0.01 0.01 0.00 0.01
0.01 0.01 0.01 0.01 0.01 0.01 0.01 0.01 0.01 0.01 0.01 0.01 0.01 0.01 0.01 0.01 0.01 0.01 0.00 0.00 0.00 0.00 0.00 0.00 0.01 0.01 0.01 0.01 0.01 0.01 0.01 0.01 0.01 0.01 0.01 0.01 0.01 0.01 0.01 0.01 0.01 0.00 0.00 0.00
0.01 0.01 0.01 0.01 0.01 0.01 0.01 0.01 0.01 0.01 0.01 0.01 0.01 0.01 0.00 0.00 0.00 0.00 0.00 0.00 0.00 0.00 0.00 0.00 0.01 0.01 0.01 0.01 0.01 0.01 0.01 0.01 0.01 0.01 0.01 0.01 0.01 0.01 0.01 0.00 0.00 0.00 0.00 0.00
0.01 0.01 0.01 0.01 0.01 0.01 0.01 0.01 0.01 0.01 0.00 0.00 0.01 0.01 0.01 0.01 0.01 0.00 0.00 0.00 0.00 0.00 0.00 0.00 0.00 0.01 0.01 0.01 0.00 0.00 0.01 0.00 0.01 0.01 0.01 0.01 0.01 0.00 0.00 0.00 0.00 0.00 0.00 0.00
0.01 0.01 0.01 0.01 0.01 0.01 0.01 0.01 0.01 0.00 0.00 0.00 0.00 0.00 0.01 0.01 0.00 0.00 0.00 0.00 0.00 0.00 0.00 0.00 0.00 0.00 0.00 0.00 0.00 0.00 0.00 0.00 0.00 0.00 0.00 0.00 0.00 0.00 0.00 0.00 0.00 0.00 0.00 0.00
0.01 0.01 0.00 0.00 0.00 0.00 0.00 0.00 0.01 0.01 0.00 0.00 0.00 0.00 0.00 0.00 0.00 0.00 0.00 0.00 0.00 0.00 0.00 0.00 0.00 0.00 0.00 0.00 0.00 0.00 0.00 0.00 0.00 0.00 0.00 0.00 0.00 0.00 0.00 0.00 0.00 0.00 0.00 0.00
MSLP
1002.35 1001.56 1000.99 1000.63 1000.48 1000.49 1000.64 1000.92 1001.33 1001.86 1002.54 1003.37 1004.33 1005.40 1006.53 1007.65 1008.68 1009.56 1010.23 1010.68 1010.93 1011.01 1011.02 1011.02 1011.11 1011.35 1011.77 1012.37 1013.12 1013.96 1014.82 1015.65 1016.41 1017.06 1017.63 1018.12 1018.60 1019.10 1019.67 1020.32 1021.07 1021.89 1022.76 1023.65
1003.45 1002.89 1002.52 1002.34 1002.32 1002.43 1002.65 1002.97 1003.39 1003.91 1004.56 1005.34 1006.23 1007.22 1008.24 1009.24 1010.14 1010.89 1011.43 1011.75 1011.86 1011.82 1011.69 1011.57 1011.53 1011.64 1011.93 1012.42 1013.08 1013.85 1014.68 1015.49 1016.25 1016.93 1017.51 1018.03 1018.52 1019.01 1019.55 1020.17 1020.87 1021.64 1022.48 1023.34
1005.11 1004.90 1004.83 1004.90 1005.07 1005.32 1005.61 1005.95 1006.34 1006.79 1007.32 1007.94 1008.65 1009.43 1010.25 1011.04 1011.74 1012.30 1012.67 1012.84 1012.81 1012.64 1012.39 1012.15 1011.99 1011.98 1012.16 1012.54 1013.11 1013.81 1014.59 1015.38 1016.15 1016.84 1017.46 1018.00 1018.50 1019.00 1019.52 1020.10 1020.75 1021.48 1022.26 1023.09
1007.44 1007.60 1007.87 1008.20 1008.57 1008.94 1009.28 1009.60 1009.90 1010.20 1010.53 1010.91 1011.36 1011.86 1012.40 1012.93 1013.39 1013.74 1013.94 1013.95 1013.81 1013.53 1013.19 1012.85 1012.59 1012.48 1012.55 1012.83 1013.30 1013.93 1014.65 1015.42 1016.18 1016.89 1017.53 1018.10 1018.61 1019.11 1019.61 1020.16 1020.76 1021.42 1022.15 1022.93
1010.40 1010.90 1011.45 1012.00 1012.50 1012.93 1013.26 1013.49 1013.63 1013.73 1013.81 1013.90 1014.06 1014.26 1014.51 1014.77 1015.01 1015.17 1015.21 1015.11 1014.88 1014.54 1014.14 1013.74 1013.41 1013.21 1013.19 1013.38 1013.75 1014.29 1014.95 1015.68 1016.42 1017.13 1017.78 1018.36 1018.89 1019.38 1019.87 1020.37 1020.91 1021.50 1022.16 1022.87
1013.83 1014.56 1015.28 1015.93 1016.48 1016.87 1017.11 1017.19 1017.14 1016.99 1016.80 1016.62 1016.48 1016.41 1016.41 1016.45 1016.50 1016.52 1016.47 1016.31 1016.05 1015.69 1015.27 1014.85 1014.48 1014.22 1014.13 1014.22 1014.50 1014.95 1015.53 1016.20 1016.90 1017.59 1018.24 1018.82 1019.35 1019.83 1020.28 1020.74 1021.22 1021.74 1022.31 1022.94
1017.49 1018.30 1019.04 1019.66 1020.13 1020.40 1020.47 1020.36 1020.08 1019.70 1019.27 1018.84 1018.47 1018.18 1017.99 1017.89 1017.83 1017.78 1017.70 1017.55 1017.31 1016.98 1016.59 1016.18 1015.80 1015.50 1015.34 1015.35 1015.54 1015.89 1016.38 1016.97 1017.61 1018.27 1018.89 1019.46 1019.98 1020.43 1020.85 1021.26 1021.67 1022.11 1022.59 1023.13
1021.07 1021.80 1022.43 1022.90 1023.18 1023.25 1023.11 1022.79 1022.30 1021.72 1021.09 1020.49 1019.97 1019.56 1019.27 1019.10 1019.02 1018.98 1018.93 1018.83 1018.66 1018.40 1018.07 1017.69 1017.32 1017.01 1016.79 1016.72 1016.81 1017.06 1017.45 1017.95 1018.52 1019.11 1019.70 1020.24 1020.73 1021.15 1021.54 1021.89 1022.24 1022.60 1023.00 1023.45
1024.30 1024.84 1025.24 1025.46 1025.50 1025.34 1024.98 1024.46 1023.80 1023.08 1022.34 1021.65 1021.07 1020.62 1020.33 1020.17 1020.12 1020.14 1020.17 1020.16 1020.08 1019.90 1019.64 1019.32 1018.97 1018.64 1018.38 1018.23 1018.23 1018.37 1018.66 1019.06 1019.54 1020.07 1020.60 1021.10 1021.55 1021.94 1022.29 1022.60 1022.89 1023.19 1023.52 1023.89
1026.99 1027.26 1027.38 1027.33 1027.11 1026.72 1026.17 1025.50 1024.75 1023.96 1023.20 1022.51 1021.95 1021.54 1021.30 1021.21 1021.23 1021.33 1021.45 1021.53 1021.54 1021.44 1021.25 1020.97 1020.64 1020.30 1020.00 1019.79 1019.70 1019.75 1019.93 1020.23 1020.62 1021.07 1021.53 1021.98 1022.39 1022.75 1023.06 1023.34 1023.59 1023.84 1024.11 1024.41
1029.07 1029.07 1028.90 1028.60 1028.16 1027.59 1026.93 1026.19 1025.41 1024.64 1023.93 1023.31 1022.83 1022.51 1022.35 1022.34 1022.44 1022.60 1022.78 1022.93 1023.00 1022.96 1022.81 1022.56 1022.25 1021.90 1021.57 1021.31 1021.14 1021.10 1021.19 1021.39 1021.69 1022.05 1022.45 1022.84 1023.21 1023.54 1023.82 1024.07 1024.29 1024.51 1024.74 1024.99
1030.59 1030.34 1029.96 1029.46 1028.88 1028.22 1027.51 1026.79 1026.07 1025.39 1024.78 1024.28 1023.91 1023.68 1023.60 1023.64 1023.78 1023.98 1024.18 1024.34 1024.43 1024.40 1024.27 1024.03 1023.72 1023.36 1023.01 1022.71 1022.49 1022.38 1022.38 1022.50 1022.72 1023.00 1023.33 1023.66 1023.99 1024.29 1024.54 1024.77 1024.98 1025.17 1025.37 1025.58
1031.69 1031.28 1030.76 1030.16 1029.52 1028.85 1028.19 1027.54 1026.94 1026.38 1025.91 1025.53 1025.26 1025.11 1025.07 1025.13 1025.26 1025.43 1025.60 1025.72 1025.77 1025.73 1025.58 1025.34 1025.02 1024.66 1024.30 1023.97 1023.72 1023.56 1023.51 1023.56 1023.70 1023.92 1024.18 1024.46 1024.74 1024.99 1025.22 1025.43 1025.62 1025.79 1025.96 1026.14
1032.54 1032.05 1031.48 1030.87 1030.25 1029.65 1029.08 1028.56 1028.10 1027.69 1027.35 1027.08 1026.88 1026.77 1026.73 1026.75 1026.82 1026.90 1026.98 1027.02 1027.00 1026.90 1026.72 1026.46 1026.14 1025.79 1025.43 1025.11 1024.85 1024.66 1024.57 1024.58 1024.66 1024.81 1025.01 1025.23 1025.46 1025.67 1025.86 1026.04 1026.20 1026.34 1026.49 1026.64
1033.28 1032.79 1032.24 1031.68 1031.14 1030.65 1030.22 1029.84 1029.52 1029.24 1029.00 1028.81 1028.65 1028.53 1028.44 1028.38 1028.34 1028.30 1028.26 1028.19 1028.08 1027.92 1027.70 1027.42 1027.11 1026.78 1026.44 1026.14 1025.89 1025.71 1025.60 1025.57 1025.61 1025.70 1025.84 1026.00 1026.17 1026.33 1026.47 1026.60 1026.72 1026.83 1026.93 1027.04
1034.00 1033.56 1033.08 1032.61 1032.18 1031.81 1031.51 1031.26 1031.05 1030.87 1030.71 1030.55 1030.38 1030.22 1030.05 1029.89 1029.72 1029.56 1029.39 1029.20 1029.00 1028.78 1028.52 1028.25 1027.95 1027.66 1027.37 1027.10 1026.88 1026.71 1026.60 1026.55 1026.55 1026.60 1026.67 1026.77 1026.87 1026.96 1027.05 1027.12 1027.18 1027.23 1027.28 1027.33
1034.71 1034.34 1033.95 1033.57 1033.25 1032.99 1032.79 1032.64 1032.52 1032.40 1032.27 1032.11 1031.92 1031.69 1031.44 1031.17 1030.89 1030.60 1030.32 1030.04 1029.78 1029.51 1029.24 1028.98 1028.72 1028.46 1028.22 1028.01 1027.82 1027.68 1027.57 1027.50 1027.47 1027.47 1027.49 1027.51 1027.54 1027.57 1027.58 1027.58 1027.58 1027.57 1027.55 1027.54
1035.38 1035.08 1034.76 1034.47 1034.23 1034.05 1033.92 1033.83 1033.75 1033.66 1033.53 1033.36 1033.13 1032.84 1032.51 1032.16 1031.79 1031.42 1031.07 1030.74 1030.43 1030.15 1029.89 1029.65 1029.43 1029.23 1029.04 1028.86 1028.71 1028.58 1028.48 1028.39 1028.33 1028.28 1028.24 1028.20 1028.16 1028.11 1028.06 1027.99 1027.91 1027.83 1027.74 1027.66
1035.94 1035.70 1035.44 1035.20 1035.01 1034.88 1034.78 1034.71 1034.64 1034.55 1034.41 1034.22 1033.95 1033.63 1033.26 1032.86 1032.44 1032.04 1031.65 1031.30 1030.99 1030.72 1030.49 1030.28 1030.10 1029.94 1029.79 1029.65 1029.52 1029.39 1029.28 1029.17 1029.07 1028.98 1028.88 1028.78 1028.68 1028.57 1028.44 1028.31 1028.17 1028.02 1027.87 1027.73
1036.34 1036.14 1035.92 1035.72 1035.55 1035.43 1035.34 1035.27 1035.19 1035.09 1034.93 1034.72 1034.44 1034.11 1033.73 1033.32 1032.90 1032.50 1032.13 1031.79 1031.50 1031.26 1031.05 1030.87 1030.72 1030.58 1030.45 1030.32 1030.19 1030.06 1029.92 1029.78 1029.65 1029.51 1029.37 1029.22 1029.06 1028.90 1028.73 1028.54 1028.35 1028.15 1027.95 1027.75
1036.57 1036.40 1036.21 1036.03 1035.87 1035.75 1035.65 1035.57 1035.47 1035.35 1035.19 1034.97 1034.70 1034.38 1034.01 1033.63 1033.25 1032.87 1032.53 1032.23 1031.97 1031.75 1031.56 1031.40 1031.26 1031.12 1030.98 1030.84 1030.69 1030.54 1030.37 1030.20 1030.03 1029.85 1029.67 1029.49 1029.30 1029.10 1028.89 1028.67 1028.44 1028.21 1027.97 1027.74
1036.67 1036.53 1036.36 1036.19 1036.04 1035.91 1035.81 1035.71 1035.60 1035.47 1035.30 1035.09 1034.83 1034.54 1034.21 1033.86 1033.52 1033.19 1032.89 1032.62 1032.38 1032.18 1032.00 1031.83 1031.68 1031.52 1031.36 1031.19 1031.01 1030.81 1030.61 1030.41 1030.20 1030.00 1029.79 1029.58 1029.37 1029.16 1028.93 1028.70 1028.45 1028.19 1027.94 1027.68
1036.70 1036.59 1036.44 1036.29 1036.15 1036.03 1035.91 1035.80 1035.69 1035.55 1035.38 1035.18 1034.94 1034.67 1034.37 1034.06 1033.76 1033.46 1033.19 1032.94 1032.71 1032.51 1032.32 1032.14 1031.95 1031.76 1031.56 1031.35 1031.13 1030.90 1030.66 1030.43 1030.20 1029.98 1029.75 1029.54 1029.32 1029.10 1028.86 1028.62 1028.36 1028.10 1027.82 1027.55
1036.71 1036.64 1036.53 1036.41 1036.28 1036.17 1036.06 1035.94 1035.82 1035.67 1035.50 1035.30 1035.07 1034.81 1034.53 1034.25 1033.96 1033.68 1033.42 1033.17 1032.94 1032.71 1032.50 1032.28 1032.06 1031.83 1031.59 1031.34 1031.08 1030.82 1030.56 1030.31 1030.06 1029.83 1029.61 1029.38 1029.16 1028.94 1028.70 1028.45 1028.19 1027.91 1027.62 1027.32
1036.76 1036.73 1036.66 1036.57 1036.48 1036.38 1036.27 1036.15 1036.02 1035.86 1035.68 1035.47 1035.23 1034.97 1034.69 1034.40 1034.11 1033.82 1033.54 1033.28 1033.02 1032.77 1032.52 1032.27 1032.02 1031.75 1031.48 1031.20 1030.92 1030.64 1030.36 1030.10 1029.85 1029.62 1029.39 1029.16 1028.94 1028.71 1028.46 1028.19 1027.91 1027.61 1027.29 1026.96
1036.88 1036.88 1036.86 1036.80 1036.74 1036.65 1036.55 1036.42 1036.28 1036.10 1035.90 1035.66 1035.39 1035.10 1034.80 1034.49 1034.17 1033.86 1033.56 1033.26 1032.98 1032.70 1032.42 1032.14 1031.85 1031.56 1031.27 1030.98 1030.69 1030.40 1030.13 1029.86 1029.61 1029.37 1029.14 1028.90 1028.66 1028.41 1028.14 1027.84 1027.52 1027.18 1026.82 1026.44
1037.06 1037.10 1037.10 1037.08 1037.03 1036.96 1036.85 1036.72 1036.55 1036.34 1036.10 1035.83 1035.52 1035.20 1034.86 1034.51 1034.16 1033.81 1033.48 1033.15 1032.84 1032.53 1032.23 1031.93 1031.63 1031.33 1031.03 1030.74 1030.44 1030.16 1029.89 1029.62 1029.36 1029.11 1028.86 1028.60 1028.33 1028.04 1027.72 1027.38 1027.00 1026.60 1026.18 1025.74
Thickness
5441 5446 5445 5443 5444 5444 5439 5439 5439 5449 5450 5441 5437 5432 5429 5427 5424 5421 5418 5416 5415 5412 5410 5408 5406 5403 5401 5398 5397 5395 5393 5390 5387 5385 5383 5381 5379 5378 5376 5374 5373 5371 5370 5369
5423 5436 5435 5433 5435 5434 5434 5433 5433 5435 5432 5423 5421 5418 5415 5411 5409 5408 5405 5404 5402 5400 5398 5395 5393 5391 5388 5385 5383 5382 5380 5377 5375 5373 5371 5369 5367 5366 5365 5363 5362 5360 5358 5358
5410 5421 5420 5417 5420 5421 5419 5416 5417 5415 5410 5405 5404 5402 5399 5396 5394 5392 5389 5388 5386 5385 5383 5381 5380 5378 5375 5372 5370 5369 5366 5364 5363 5361 5359 5357 5356 5355 5354 5352 5350 5349 5347 5347
5393 5399 5395 5408 5408 5411 5407 5399 5397 5395 5391 5389 5386 5382 5380 5378 5375 5373 5373 5371 5370 5369 5369 5367 5366 5364 5361 5359 5357 5355 5353 5351 5350 5348 5347 5345 5344 5343 5341 5340 5339 5338 5336 5335
5383 5387 5396 5395 5388 5384 5385 5383 5378 5378 5375 5372 5370 5372 5366 5363 5360 5359 5358 5357 5356 5355 5354 5353 5351 5350 5348 5345 5343 5342 5340 5339 5337 5336 5335 5334 5333 5331 5329 5328 5327 5326 5325 5324
5375 5377 5381 5375 5369 5372 5374 5367 5360 5361 5359 5356 5357 5355 5349 5346 5345 5345 5344 5343 5342 5341 5340 5339 5338 5336 5334 5332 5330 5328 5327 5326 5325 5324 5323 5322 5320 5319 5318 5317 5315 5315 5314 5313
5362 5364 5363 5350 5356 5363 5356 5350 5343 5344 5342 5340 5337 5332 5329 5330 5330 5330 5329 5329 5328 5327 5325 5325 5324 5323 5321 5319 5317 5316 5315 5313 5313 5312 5311 5310 5308 5307 5306 5305 5304 5303 5302 5302
5350 5352 5349 5338 5341 5335 5330 5329 5329 5328 5325 5323 5319 5317 5317 5316 5315 5314 5314 5314 5313 5312 5311 5311 5310 5308 5306 5304 5304 5303 5302 5301 5300 5299 5299 5298 5297 5295 5294 5293 5293 5292 5291 5290
5337 5334 5328 5323 5320 5318 5317 5315 5314 5312 5311 5309 5307 5305 5304 5302 5300 5300 5300 5299 5299 5298 5297 5296 5295 5294 5292 5291 5291 5290 5289 5288 5288 5288 5287 5286 5285 5284 5283 5282 5281 5281 5280 5279
5322 5319 5315 5311 5308 5305 5303 5301 5300 5299 5297 5296 5293 5291 5289 5288 5287 5285 5285 5285 5284 5284 5283 5282 5281 5280 5279 5279 5278 5278 5277 5276 5276 5275 5275 5274 5273 5273 5272 5271 5270 5270 5269 5268
5307 5305 5301 5299 5293 5290 5289 5288 5286 5285 5284 5282 5280 5277 5275 5273 5272 5271 5272 5270 5270 5270 5269 5268 5267 5267 5266 5266 5266 5265 5264 5264 5264 5264 5263 5261 5261 5260 5260 5260 5259 5258 5257 5256
5292 5289 5286 5283 5280 5278 5275 5274 5272 5271 5269 5268 5266 5263 5261 5260 5258 5257 5256 5256 5256 5256 5255 5255 5254 5254 5254 5253 5253 5252 5253 5252 5252 5251 5250 5250 5249 5248 5249 5249 5249 5248 5247 5246
5277 5276 5273 5271 5268 5265 5262 5260 5259 5257 5256 5254 5252 5250 5248 5246 5245 5244 5243 5243 5243 5242 5242 5242 5241 5241 5241 5241 5241 5241 5240 5240 5240 5240 5239 5238 5237 5237 5236 5236 5237 5236 5236 5235
5267 5265 5261 5259 5255 5252 5251 5249 5246 5245 5243 5241 5239 5237 5235 5234 5233 5231 5230 5230 5230 5230 5229 5229 5229 5229 5229 5230 5230 5229 5229 5229 5228 5227 5226 5226 5225 5225 5225 5224 5224 5223 5223 5223
5256 5253 5250 5248 5245 5242 5240 5238 5235 5233 5231 5230 5227 5225 5223 5222 5221 5220 5219 5220 5220 5218 5218 5217 5217 5217 5217 5218 5218 5218 5217 5217 5216 5215 5215 5215 5214 5214 5213 5212 5211 5211 5211 5211
5244 5242 5240 5237 5235 5232 5230 5227 5225 5222 5220 5219 5216 5214 5213 5211 5210 5209 5209 5209 5208 5207 5207 5206 5206 5206 5206 5207 5207 5206 5206 5206 5205 5204 5204 5203 5203 5203 5202 5201 5200 5200 5199 5199
5232 5230 5228 5226 5224 5221 5219 5217 5215 5212 5210 5208 5206 5205 5203 5202 5200 5199 5199 5198 5198 5197 5197 5197 5197 5196 5196 5196 5195 5195 5194 5194 5194 5193 5192 5192 5192 5191 5190 5190 5189 5189 5188 5188
5223 5221 5219 5216 5214 5211 5209 5207 5205 5203 5201 5199 5197 5196 5193 5192 5191 5191 5190 5189 5188 5188 5188 5187 5187 5186 5186 5185 5185 5184 5183 5182 5182 5181 5181 5181 5181 5180 5180 5179 5179 5178 5177 5177
5215 5213 5210 5208 5206 5203 5200 5198 5196 5194 5192 5190 5189 5186 5184 5183 5182 5181 5180 5179 5178 5178 5178 5177 5178 5177 5176 5175 5175 5174 5173 5172 5171 5171 5171 5171 5171 5170 5169 5169 5168 5168 5167 5167
5207 5205 5202 5200 5198 5195 5192 5190 5187 5185 5183 5181 5180 5177 5176 5175 5174 5173 5171 5170 5169 5169 5169 5169 5168 5167 5166 5165 5165 5164 5162 5161 5161 5161 5160 5160 5160 5159 5159 5159 5158 5157 5157 5156
5198 5196 5194 5192 5189 5186 5184 5181 5179 5176 5175 5173 5171 5169 5168 5166 5165 5164 5163 5163 5163 5162 5161 5161 5160 5159 5157 5157 5156 5154 5153 5152 5151 5151 5150 5150 5150 5149 5149 5149 5148 5148 5147 5147
5191 5188 5186 5184 5181 5178 5175 5173 5171 5169 5167 5165 5163 5161 5160 5158 5158 5157 5155 5154 5154 5154 5153 5152 5151 5151 5150 5150 5148 5146 5144 5143 5142 5141 5141 5140 5140 5140 5140 5139 5139 5138 5138 5137
5184 5181 5178 5175 5172 5170 5167 5165 5163 5161 5159 5157 5155 5153 5152 5151 5150 5148 5148 5147 5146 5146 5145 5144 5143 5143 5143 5141 5139 5137 5135 5134 5133 5132 5131 5131 5131 5131 5130 5130 5130 5129 5129 5128
5177 5174 5171 5168 5165 5162 5160 5158 5156 5154 5152 5150 5148 5146 5144 5143 5142 5140 5139 5139 5138 5138 5136 5135 5135 5135 5135 5132 5130 5129 5127 5125 5124 5123 5123 5122 5122 5122 5121 5121 5121 5121 5120 5120
5169 5166 5163 5161 5158 5156 5154 5152 5149 5148 5146 5144 5141 5139 5137 5135 5133 5132 5131 5130 5130 5129 5127 5126 5126 5126 5124 5123 5121 5120 5118 5117 5116 5116 5115 5115 5114 5114 5113 5113 5113 5112 5112 5112
5162 5160 5157 5154 5152 5149 5147 5145 5143 5141 5138 5136 5134 5132 5130 5128 5127 5125 5123 5122 5120 5120 5118 5117 5116 5115 5114 5113 5112 5111 5110 5109 5108 5107 5107 5107 5106 5106 5106 5105 5105 5105 5105 5105
5155 5153 5150 5148 5145 5142 5140 5137 5135 5133 5131 5129 5127 5125 5123 5121 5119 5117 5115 5114 5112 5111 5109 5108 5107 5106 5105 5104 5103 5102 5102 5101 5100 5100 5099 5099 5099 5099 5099 5098 5098 5098 5099 5099